This is the latest recevied weather packets stored in our database for station/object KE5VT. If no packets are shown the sender has not sent any weather packets the latest 10 day(s).
| Time | Temp. | Humidity | Pressure | Rain* | Wind** | Luminosity | Snow |
|---|---|---|---|---|---|---|---|
| 1787698943 | 28.33° C | 54% | 1013.6 hPa | 0 mm | - | 25 W/m² | - |
| 1787698643 | 28.33° C | 54% | 1013.4 hPa | 0 mm | - | 25 W/m² | - |
| 1787698339 | 28.89° C | 55% | 1013.4 hPa | 0 mm | - | 25 W/m² | - |
| 1787698035 | 28.89° C | 54% | 1013.7 hPa | 0 mm | - | 31 W/m² | - |
| 1787697734 | 28.89° C | 54% | 1013.4 hPa | 0 mm | - | 29 W/m² | - |
| 1787697430 | 28.89° C | 53% | 1013.3 hPa | 0 mm | - | 33 W/m² | - |
| 1787697125 | 29.44° C | 53% | 1013.5 hPa | 0 mm | - | 62 W/m² | - |
| 1787696821 | 29.44° C | 52% | 1013.4 hPa | 0 mm | - | 118 W/m² | - |
| 1787696517 | 29.44° C | 51% | 1013.4 hPa | 0 mm | - | 132 W/m² | - |
| 1787696212 | 29.44° C | 53% | 1013.3 hPa | 0 mm | - | 154 W/m² | - |
| 1787695911 | 29.44° C | 51% | 1013.1 hPa | 0 mm | - | 177 W/m² | - |
| 1787695606 | 29.44° C | 51% | 1013.3 hPa | 0 mm | - | 192 W/m² | - |
| 1787695303 | 30° C | 52% | 1013.2 hPa | 0 mm | - | 207 W/m² | - |
| 1787695002 | 29.44° C | 51% | 1013.1 hPa | 0 mm | - | 223 W/m² | - |
| 1787694702 | 29.44° C | 51% | 1013 hPa | 0 mm | - | 245 W/m² | - |
| 1787694397 | 30° C | 50% | 1013.2 hPa | 0 mm | - | 266 W/m² | - |
| 1787694092 | 30° C | 50% | 1013.1 hPa | 0 mm | - | 278 W/m² | - |
| 1787693788 | 30.56° C | 50% | 1013 hPa | 0 mm | - | 293 W/m² | - |
| 1787693484 | 32.78° C | 47% | 1013 hPa | 0 mm | - | 305 W/m² | - |
| 1787693180 | 31.67° C | 47% | 1013.1 hPa | 0 mm | - | 320 W/m² | - |
| 1787692876 | 32.78° C | 45% | 1013 hPa | 0 mm | - | 337 W/m² | - |
| 1787692570 | 32.78° C | 42% | 1012.9 hPa | 0 mm | - | 354 W/m² | - |
| 1787692270 | 32.22° C | 45% | 1012.9 hPa | 0 mm | - | 338 W/m² | - |
| 1787691965 | 31.67° C | 46% | 1012.8 hPa | 0 mm | - | 92 W/m² | - |
| 1787691664 | 30.56° C | 45% | 1012.8 hPa | 0 mm | - | 114 W/m² | - |
* Rain latest hour (hover to see other rain measurements)
** Current wind speed in m/s (hover to see current wind gust speed)